CW5437 Weather Reports


Display with metric or nautical units.
time (UTC)temp
F
wind
direction
speed
MPH
gust
MPH
rain 1hr
in
rain 24hr
in
rain mn
in
humidity
%
barometer
mb
20260505124002 65 228 11.0 20.0 0.00 0.02 0.02 61 1006.8
20260505123002 65 228 14.0 19.0 0.00 0.02 0.02 61 1007.0
20260505122003 65 273 10.0 13.0 0.00 0.02 0.02 61 1006.8
20260505121003 65 205 18.0 23.0 0.00 0.02 0.02 61 1006.7
20260505120004 65 205 10.0 16.0 0.00 0.02 0.02 61 1006.6
20260505115003 64 228 13.0 17.0 0.00 0.02 0.02 61 1006.7
20260505113003 64 228 12.0 19.0 0.00 0.02 0.02 61 1006.4
20260505112003 64 228 10.0 17.0 0.00 0.02 0.02 61 1006.2
20260505102007 63 183 12.0 16.0 0.00 0.02 0.02 62 1005.9
20260505101015 63 205 10.0 15.0 0.00 0.02 0.02 63 1005.8
20260505100002 63 183 10.0 16.0 0.00 0.02 0.02 64 1005.8
20260505094005 63 183 9.0 12.0 0.00 0.02 0.02 65 1005.7
20260505093004 63 205 8.0 16.0 0.00 0.02 0.02 65 1005.7
20260505092004 62 205 8.0 12.0 0.00 0.02 0.02 67 1005.6
20260505091005 62 228 8.0 12.0 0.00 0.02 0.02 67 1005.6
20260505090004 62 160 6.0 9.0 0.00 0.02 0.02 67 1005.6
20260505085005 62 183 7.0 11.0 0.00 0.02 0.02 67 1005.5
20260505084005 62 183 6.0 11.0 0.00 0.02 0.02 68 1005.5
20260505083006 62 250 10.0 15.0 0.00 0.02 0.02 70 1005.5
20260505082007 61 228 8.0 12.0 0.00 0.02 0.02 71 1005.4
20260505081006 61 228 8.0 12.0 0.00 0.02 0.02 72 1005.4
20260505080006 60 228 8.0 13.0 0.00 0.02 0.02 74 1005.5
20260505075001 60 205 8.0 13.0 0.00 0.02 0.02 76 1005.3
20260505074001 60 183 5.0 9.0 0.00 0.02 0.02 76 1005.4
20260505073002 60 228 4.0 6.0 0.00 0.02 0.02 76 1005.4
20260505072002 60 160 6.0 9.0 0.00 0.02 0.02 73 1005.5
20260505071003 61 250 12.0 17.0 0.00 0.02 0.02 71 1005.4
20260505065002 64 228 21.0 34.0 0.00 0.02 0.02 59 1006.2
20260505064003 64 205 16.0 22.0 0.00 0.02 0.02 61 1006.0
20260505063003 64 205 9.0 12.0 0.00 0.02 0.02 62 1006.0
20260505062004 64 205 10.0 14.0 0.00 0.02 0.02 62 1005.8
20260505061005 63 250 13.0 20.0 0.00 0.02 0.02 62 1005.7
20260505060005 64 228 9.0 15.0 0.00 0.02 0.02 62 1005.9
20260505055006 63 205 9.0 13.0 0.00 0.02 0.02 64 1006.1
20260505054001 63 250 6.0 9.0 0.00 0.02 0.02 64 1006.1
20260505053002 62 228 4.0 7.0 0.00 0.02 0.02 66 1006.2
20260505051002 63 318 2.0 4.0 0.00 0.02 0.02 65 1006.4
20260505041004 64 183 11.0 17.0 0.00 0.00 0.00 58 1006.4
20260505040005 64 205 8.0 14.0 0.00 0.00 0.00 58 1006.5
20260505035004 64 205 10.0 16.0 0.00 0.00 0.00 58 1006.5
20260505034005 65 205 11.0 16.0 0.00 0.00 0.00 57 1006.9
20260505033006 65 205 7.0 14.0 0.00 0.00 0.00 57 1006.3
20260505032001 64 205 7.0 12.0 0.00 0.00 0.00 58 1006.2
20260505031002 64 205 10.0 17.0 0.00 0.00 0.00 59 1006.5
20260505030003 64 183 5.0 7.0 0.00 0.00 0.00 59 1006.6
20260505025004 64 205 6.0 8.0 0.00 0.00 0.00 59 1006.5
20260505024005 64 205 7.0 11.0 0.00 0.00 0.00 61 1006.5
20260505023006 63 183 4.0 5.0 0.00 0.00 0.00 63 1006.7
20260505022006 62 160 3.0 4.0 0.00 0.00 0.00 64 1006.7
20260505021007 62 160 3.0 4.0 0.00 0.00 0.00 64 1006.7
20260505015006 65 205 7.0 12.0 0.00 0.00 0.00 55 1006.3
20260505014008 65 160 4.0 6.0 0.00 0.00 0.00 53 1006.3
20260505013002 66 160 6.0 10.0 0.00 0.00 0.00 52 1006.5
20260505012003 67 205 10.0 16.0 0.00 0.00 0.00 50 1006.6
20260505011004 67 273 5.0 7.0 0.00 0.00 0.00 47 1006.6
20260505010005 67 205 8.0 12.0 0.00 0.00 0.00 46 1006.2
20260505005005 68 228 10.0 14.0 0.00 0.00 0.00 45 1006.2
20260505003004 68 250 7.0 10.0 0.00 0.00 0.00 43 1006.1
20260505002005 68 250 5.0 10.0 0.00 0.00 0.00 41 1005.9
20260505001006 68 250 8.0 11.0 0.00 0.00 0.00 41 1005.9
20260504235006 69 205 10.0 16.0 0.00 0.00 0.00 39 1006.2
20260504234006 69 228 10.0 12.0 0.00 0.00 0.00 37 1006.0
20260504233007 70 250 14.0 20.0 0.00 0.00 0.00 36 1006.1
20260504232002 70 228 12.0 16.0 0.00 0.00 0.00 35 1006.2
20260504230008 71 250 13.0 19.0 0.00 0.00 0.00 34 1006.3
20260504225002 71 205 9.0 14.0 0.00 0.00 0.00 35 1006.3
20260504224003 71 205 10.0 17.0 0.00 0.00 0.00 35 1006.2
20260504223003 71 183 9.0 16.0 0.00 0.00 0.00 35 1006.1
20260504222004 71 205 9.0 11.0 0.00 0.00 0.00 35 1006.5
20260504221005 72 205 8.0 12.0 0.00 0.00 0.00 33 1006.8
20260504220006 72 250 11.0 15.0 0.00 0.00 0.00 33 1006.3
20260504214006 72 205 11.0 16.0 0.00 0.00 0.00 30 1006.1
20260504212005 72 228 12.0 17.0 0.00 0.00 0.00 29 1006.0
20260504211006 72 205 13.0 19.0 0.00 0.00 0.00 27 1007.0
20260504210007 73 228 13.0 17.0 0.00 0.00 0.00 26 1006.0
20260504204007 73 250 13.0 19.0 0.00 0.00 0.00 25 1006.3
20260504203002 73 228 12.0 17.0 0.00 0.00 0.00 27 1006.4
20260504202002 73 250 17.0 22.0 0.00 0.00 0.00 26 1006.4
20260504200002 72 250 8.0 12.0 0.00 0.00 0.00 31 1006.4
20260504195003 72 228 19.0 29.0 0.00 0.00 0.00 31 1006.7
20260504194004 72 250 15.0 20.0 0.00 0.00 0.00 29 1008.0
20260504193004 72 228 14.0 18.0 0.00 0.00 0.00 29 1007.0
20260504192005 72 228 9.0 13.0 0.00 0.00 0.00 32 1007.0
20260504191006 71 250 10.0 15.0 0.00 0.00 0.00 32 1007.1
20260504190006 72 250 12.0 16.0 0.00 0.00 0.00 29 1007.3
20260504185007 72 228 10.0 17.0 0.00 0.00 0.00 32 1007.4
20260504184001 71 228 15.0 22.0 0.00 0.00 0.00 31 1007.6
20260504182007 71 295 5.0 10.0 0.00 0.00 0.00 35 1007.8
20260504181002 71 228 10.0 16.0 0.00 0.00 0.00 36 1007.8
20260504180003 70 205 16.0 22.0 0.00 0.00 0.00 33 1008.1
20260504175002 71 250 9.0 13.0 0.00 0.00 0.00 35 1008.1
20260504174003 70 228 7.0 19.0 0.00 0.00 0.00 36 1008.1
20260504173004 69 228 15.0 21.0 0.00 0.00 0.00 37 1008.2
20260504172005 69 228 13.0 20.0 0.00 0.00 0.00 37 1008.3
20260504171005 69 273 9.0 15.0 0.00 0.00 0.00 40 1008.5
20260504151000 64 250 11.0 14.0 0.00 0.00 0.00 45 1009.4
20260504141002 60 250 10.0 15.0 0.00 0.00 0.00 49 1009.7